| time (UTC) | temp F | wind direction | speed MPH | gust MPH | rain 1hr in | rain 24hr in | rain mn in | humidity % | barometer mb |
| 20260508014529 | 40 | 146 | 1.0 | 4.0 | 0.00 | 0.00 | 0.00 | 63 | 1011.5 |
| 20260508014015 | 40 | 140 | 1.0 | 4.0 | 0.00 | 0.00 | 0.00 | 63 | 1011.4 |
| 20260508013516 | 40 | 146 | 2.0 | 4.0 | 0.00 | 0.00 | 0.00 | 63 | 1011.3 |
| 20260508013030 | 40 | 137 | 0.0 | 3.0 | 0.00 | 0.00 | 0.00 | 62 | 1011.3 |
| 20260508012516 | 41 | 146 | 1.0 | 3.0 | 0.00 | 0.00 | 0.00 | 61 | 1011.3 |
| 20260508012016 | 41 | 126 | 2.0 | 3.0 | 0.00 | 0.00 | 0.00 | 61 | 1011.3 |
| 20260508011536 | 41 | 130 | 1.0 | 5.0 | 0.00 | 0.00 | 0.00 | 61 | 1011.2 |
| 20260508011015 | 41 | 147 | 2.0 | 5.0 | 0.00 | 0.00 | 0.00 | 60 | 1011.2 |
| 20260508010517 | 42 | 143 | 2.0 | 9.0 | 0.00 | 0.00 | 0.00 | 60 | 1011.1 |
| 20260508010041 | 42 | 144 | 3.0 | 9.0 | 0.00 | 0.00 | 0.00 | 59 | 1011.1 |
| 20260508005515 | 42 | 157 | 4.0 | 8.0 | 0.00 | 0.00 | 0.00 | 59 | 1011.0 |
| 20260508005016 | 42 | 151 | 3.0 | 7.0 | 0.00 | 0.00 | 0.00 | 59 | 1011.0 |
| 20260508004550 | 42 | 151 | 4.0 | 7.0 | 0.00 | 0.00 | 0.00 | 59 | 1011.0 |
| 20260508004016 | 42 | 139 | 1.0 | 4.0 | 0.00 | 0.00 | 0.00 | 59 | 1011.0 |
| 20260508003516 | 43 | 109 | 1.0 | 4.0 | 0.00 | 0.00 | 0.00 | 57 | 1011.0 |
| 20260508003028 | 44 | 102 | 2.0 | 9.0 | 0.00 | 0.00 | 0.00 | 56 | 1010.9 |
| 20260508002517 | 44 | 0 | 0.0 | 10.0 | 0.00 | 0.00 | 0.00 | 55 | 1010.9 |
| 20260508002016 | 44 | 148 | 6.0 | 10.0 | 0.00 | 0.00 | 0.00 | 54 | 1010.8 |
| 20260508001532 | 44 | 175 | 5.0 | 10.0 | 0.00 | 0.00 | 0.00 | 55 | 1010.8 |
| 20260508001016 | 44 | 160 | 4.0 | 9.0 | 0.00 | 0.00 | 0.00 | 56 | 1010.7 |
| 20260508000516 | 45 | 178 | 4.0 | 13.0 | 0.00 | 0.00 | 0.00 | 55 | 1010.7 |
| 20260508000038 | 45 | 165 | 7.0 | 13.0 | 0.00 | 0.00 | 0.00 | 54 | 1010.6 |
| 20260507235519 | 45 | 141 | 8.0 | 11.0 | 0.00 | 0.00 | 0.00 | 54 | 1010.6 |
| 20260507235015 | 45 | 130 | 5.0 | 12.0 | 0.00 | 0.00 | 0.00 | 54 | 1010.7 |
| 20260507234530 | 45 | 161 | 5.0 | 15.0 | 0.00 | 0.00 | 0.00 | 54 | 1010.6 |
| 20260507234018 | 45 | 159 | 7.0 | 15.0 | 0.00 | 0.00 | 0.00 | 53 | 1010.6 |
| 20260507233517 | 46 | 153 | 9.0 | 15.0 | 0.00 | 0.00 | 0.00 | 53 | 1010.6 |
| 20260507233036 | 46 | 148 | 6.0 | 13.0 | 0.00 | 0.00 | 0.00 | 53 | 1010.7 |
| 20260507232516 | 46 | 165 | 7.0 | 14.0 | 0.00 | 0.00 | 0.00 | 53 | 1010.7 |
| 20260507232020 | 46 | 143 | 8.0 | 14.0 | 0.00 | 0.00 | 0.00 | 54 | 1010.6 |
| 20260507231531 | 47 | 171 | 7.0 | 14.0 | 0.00 | 0.00 | 0.00 | 54 | 1010.7 |
| 20260507231016 | 47 | 170 | 6.0 | 12.0 | 0.00 | 0.00 | 0.00 | 54 | 1010.7 |
| 20260507230516 | 47 | 146 | 6.0 | 14.0 | 0.00 | 0.00 | 0.00 | 55 | 1010.7 |
| 20260507230047 | 47 | 113 | 7.0 | 14.0 | 0.00 | 0.00 | 0.00 | 55 | 1010.7 |
| 20260507225517 | 47 | 159 | 9.0 | 14.0 | 0.00 | 0.00 | 0.00 | 54 | 1010.8 |
| 20260507225016 | 47 | 159 | 8.0 | 14.0 | 0.00 | 0.00 | 0.00 | 55 | 1010.8 |
| 20260507224533 | 47 | 148 | 7.0 | 13.0 | 0.00 | 0.00 | 0.00 | 55 | 1010.9 |
| 20260507224018 | 47 | 162 | 7.0 | 14.0 | 0.00 | 0.00 | 0.00 | 57 | 1011.0 |
| 20260507223523 | 47 | 175 | 8.0 | 14.0 | 0.00 | 0.00 | 0.00 | 56 | 1011.0 |
| 20260507223106 | 47 | 149 | 8.0 | 15.0 | 0.00 | 0.00 | 0.00 | 57 | 1011.0 |
| 20260507222516 | 47 | 154 | 9.0 | 15.0 | 0.00 | 0.00 | 0.00 | 56 | 1011.0 |
| 20260507222016 | 48 | 153 | 6.0 | 17.0 | 0.00 | 0.00 | 0.00 | 55 | 1011.0 |
| 20260507221532 | 48 | 161 | 5.0 | 18.0 | 0.00 | 0.00 | 0.00 | 55 | 1011.0 |
| 20260507221016 | 47 | 167 | 10.0 | 18.0 | 0.00 | 0.00 | 0.00 | 56 | 1011.0 |
| 20260507220515 | 47 | 163 | 8.0 | 15.0 | 0.00 | 0.00 | 0.00 | 58 | 1011.0 |
| 20260507220032 | 48 | 141 | 8.0 | 15.0 | 0.00 | 0.00 | 0.00 | 58 | 1011.0 |
| 20260507215517 | 48 | 133 | 7.0 | 15.0 | 0.00 | 0.00 | 0.00 | 58 | 1011.0 |
| 20260507215015 | 48 | 167 | 7.0 | 15.0 | 0.00 | 0.00 | 0.00 | 57 | 1010.9 |
| 20260507214530 | 49 | 134 | 6.0 | 15.0 | 0.00 | 0.00 | 0.00 | 56 | 1010.9 |
| 20260507214019 | 48 | 107 | 9.0 | 17.0 | 0.00 | 0.00 | 0.00 | 56 | 1011.0 |
| 20260507213516 | 48 | 168 | 10.0 | 17.0 | 0.00 | 0.00 | 0.00 | 55 | 1011.0 |
| 20260507213030 | 49 | 135 | 7.0 | 16.0 | 0.00 | 0.00 | 0.00 | 56 | 1011.0 |
| 20260507212515 | 48 | 162 | 8.0 | 16.0 | 0.00 | 0.00 | 0.00 | 55 | 1011.0 |
| 20260507212017 | 49 | 174 | 7.0 | 17.0 | 0.00 | 0.00 | 0.00 | 54 | 1011.1 |
| 20260507211531 | 48 | 171 | 9.0 | 19.0 | 0.00 | 0.00 | 0.00 | 54 | 1011.0 |
| 20260507211015 | 47 | 153 | 11.0 | 19.0 | 0.00 | 0.00 | 0.00 | 52 | 1011.2 |
| 20260507210518 | 48 | 159 | 9.0 | 19.0 | 0.00 | 0.00 | 0.00 | 53 | 1011.3 |
| 20260507210036 | 48 | 148 | 10.0 | 19.0 | 0.00 | 0.00 | 0.00 | 53 | 1011.3 |
| 20260507205515 | 48 | 163 | 7.0 | 15.0 | 0.00 | 0.00 | 0.00 | 53 | 1011.3 |
| 20260507205015 | 47 | 160 | 8.0 | 15.0 | 0.00 | 0.00 | 0.00 | 53 | 1011.6 |
| 20260507204534 | 47 | 169 | 8.0 | 14.0 | 0.00 | 0.00 | 0.00 | 51 | 1011.4 |
| 20260507204015 | 47 | 154 | 5.0 | 10.0 | 0.00 | 0.00 | 0.00 | 51 | 1011.4 |
| 20260507203515 | 47 | 148 | 4.0 | 14.0 | 0.00 | 0.00 | 0.00 | 50 | 1011.3 |
| 20260507203036 | 47 | 175 | 5.0 | 14.0 | 0.00 | 0.00 | 0.00 | 50 | 1011.2 |
| 20260507202515 | 47 | 121 | 4.0 | 13.0 | 0.00 | 0.00 | 0.00 | 50 | 1011.2 |
| 20260507202018 | 46 | 138 | 7.0 | 18.0 | 0.00 | 0.00 | 0.00 | 50 | 1011.3 |
| 20260507201534 | 46 | 143 | 9.0 | 18.0 | 0.00 | 0.00 | 0.00 | 51 | 1011.5 |
| 20260507201020 | 46 | 129 | 7.0 | 19.0 | 0.00 | 0.00 | 0.00 | 51 | 1011.6 |
| 20260507200516 | 46 | 113 | 10.0 | 19.0 | 0.00 | 0.00 | 0.00 | 52 | 1011.5 |
| 20260507200048 | 47 | 140 | 7.0 | 16.0 | 0.00 | 0.00 | 0.00 | 54 | 1011.6 |
| 20260507195515 | 47 | 147 | 7.0 | 16.0 | 0.00 | 0.00 | 0.00 | 54 | 1011.7 |
| 20260507195015 | 47 | 146 | 9.0 | 17.0 | 0.00 | 0.00 | 0.00 | 53 | 1011.7 |
| 20260507194532 | 47 | 157 | 10.0 | 18.0 | 0.00 | 0.00 | 0.00 | 52 | 1011.7 |
| 20260507194016 | 48 | 125 | 9.0 | 18.0 | 0.00 | 0.00 | 0.00 | 51 | 1011.6 |
| 20260507193516 | 48 | 142 | 9.0 | 18.0 | 0.00 | 0.00 | 0.00 | 52 | 1011.6 |
| 20260507193043 | 47 | 193 | 7.0 | 16.0 | 0.00 | 0.00 | 0.00 | 51 | 1011.6 |
| 20260507192515 | 46 | 161 | 8.0 | 16.0 | 0.00 | 0.00 | 0.00 | 51 | 1011.7 |
| 20260507192016 | 47 | 179 | 7.0 | 14.0 | 0.00 | 0.00 | 0.00 | 51 | 1011.8 |
| 20260507191530 | 48 | 161 | 5.0 | 13.0 | 0.00 | 0.00 | 0.00 | 51 | 1011.7 |
| 20260507191015 | 48 | 165 | 4.0 | 12.0 | 0.00 | 0.00 | 0.00 | 51 | 1011.7 |
| 20260507190516 | 49 | 157 | 5.0 | 12.0 | 0.00 | 0.00 | 0.00 | 49 | 1011.5 |
| 20260507190036 | 52 | 150 | 4.0 | 12.0 | 0.00 | 0.00 | 0.00 | 42 | 1011.5 |
| 20260507185515 | 53 | 255 | 3.0 | 8.0 | 0.00 | 0.00 | 0.00 | 43 | 1011.4 |
| 20260507185015 | 52 | 271 | 3.0 | 7.0 | 0.00 | 0.00 | 0.00 | 42 | 1011.5 |
| 20260507184530 | 52 | 266 | 2.0 | 7.0 | 0.00 | 0.00 | 0.00 | 43 | 1011.6 |
| 20260507184017 | 52 | 234 | 3.0 | 11.0 | 0.00 | 0.00 | 0.00 | 43 | 1011.6 |
| 20260507183517 | 52 | 216 | 3.0 | 11.0 | 0.00 | 0.00 | 0.00 | 42 | 1011.8 |
| 20260507183037 | 53 | 259 | 3.0 | 9.0 | 0.00 | 0.00 | 0.00 | 43 | 1011.8 |
| 20260507182516 | 52 | 187 | 4.0 | 10.0 | 0.00 | 0.00 | 0.00 | 44 | 1011.9 |
| 20260507182016 | 51 | 265 | 5.0 | 10.0 | 0.00 | 0.00 | 0.00 | 44 | 1011.9 |
| 20260507181536 | 52 | 202 | 2.0 | 9.0 | 0.00 | 0.00 | 0.00 | 43 | 1012.0 |
| 20260507181019 | 51 | 281 | 4.0 | 9.0 | 0.00 | 0.00 | 0.00 | 46 | 1012.0 |
| 20260507180521 | 51 | 236 | 4.0 | 9.0 | 0.00 | 0.00 | 0.00 | 43 | 1012.1 |
| 20260507180030 | 51 | 246 | 5.0 | 12.0 | 0.00 | 0.00 | 0.00 | 44 | 1012.1 |
| 20260507175516 | 51 | 352 | 6.0 | 12.0 | 0.00 | 0.00 | 0.00 | 45 | 1012.2 |
| 20260507175016 | 51 | 345 | 5.0 | 10.0 | 0.00 | 0.00 | 0.00 | 44 | 1012.3 |
| 20260507174547 | 51 | 153 | 4.0 | 10.0 | 0.00 | 0.00 | 0.00 | 43 | 1012.3 |
| 20260507174017 | 51 | 249 | 4.0 | 10.0 | 0.00 | 0.00 | 0.00 | 45 | 1012.4 |
| 20260507173515 | 50 | 247 | 5.0 | 12.0 | 0.00 | 0.00 | 0.00 | 44 | 1012.5 |
| 20260507173037 | 50 | 236 | 6.0 | 14.0 | 0.00 | 0.00 | 0.00 | 45 | 1012.7 |
| 20260507172516 | 51 | 275 | 5.0 | 14.0 | 0.00 | 0.00 | 0.00 | 45 | 1012.7 |
| 20260507172016 | 50 | 318 | 7.0 | 14.0 | 0.00 | 0.00 | 0.00 | 44 | 1012.8 |
| 20260507171535 | 50 | 330 | 5.0 | 9.0 | 0.00 | 0.00 | 0.00 | 43 | 1012.8 |
| 20260507171015 | 52 | 30 | 3.0 | 10.0 | 0.00 | 0.00 | 0.00 | 42 | 1012.8 |
| 20260507170517 | 49 | 215 | 1.0 | 10.0 | 0.00 | 0.00 | 0.00 | 43 | 1012.9 |
| 20260507170035 | 50 | 360 | 5.0 | 10.0 | 0.00 | 0.00 | 0.00 | 45 | 1013.0 |
| 20260507165516 | 50 | 122 | 1.0 | 10.0 | 0.00 | 0.00 | 0.00 | 44 | 1013.1 |
| 20260507165016 | 48 | 0 | 3.0 | 10.0 | 0.00 | 0.00 | 0.00 | 46 | 1013.3 |
| 20260507164532 | 49 | 276 | 3.0 | 8.0 | 0.00 | 0.00 | 0.00 | 46 | 1013.2 |
| 20260507164016 | 49 | 0 | 1.0 | 10.0 | 0.00 | 0.00 | 0.00 | 46 | 1013.3 |
| 20260507163515 | 48 | 255 | 4.0 | 10.0 | 0.00 | 0.00 | 0.00 | 44 | 1013.3 |
| 20260507163036 | 49 | 0 | 1.0 | 9.0 | 0.00 | 0.00 | 0.00 | 45 | 1013.3 |
| 20260507162516 | 48 | 217 | 5.0 | 10.0 | 0.00 | 0.00 | 0.00 | 47 | 1013.4 |
| 20260507162018 | 48 | 306 | 5.0 | 15.0 | 0.00 | 0.00 | 0.00 | 45 | 1013.5 |
| 20260507161540 | 47 | 264 | 7.0 | 15.0 | 0.00 | 0.00 | 0.00 | 46 | 1013.5 |
| 20260507161015 | 47 | 229 | 8.0 | 15.0 | 0.00 | 0.00 | 0.00 | 48 | 1013.6 |
| 20260507160518 | 47 | 270 | 3.0 | 11.0 | 0.00 | 0.00 | 0.00 | 46 | 1013.7 |
| 20260507160039 | 48 | 294 | 7.0 | 13.0 | 0.00 | 0.00 | 0.00 | 48 | 1013.8 |
| 20260507155520 | 47 | 290 | 5.0 | 13.0 | 0.00 | 0.00 | 0.00 | 47 | 1013.8 |
| 20260507155019 | 47 | 312 | 8.0 | 13.0 | 0.00 | 0.00 | 0.00 | 47 | 1014.0 |
| 20260507154534 | 46 | 248 | 3.0 | 12.0 | 0.00 | 0.00 | 0.00 | 46 | 1013.9 |
| 20260507154016 | 46 | 284 | 8.0 | 12.0 | 0.00 | 0.00 | 0.00 | 48 | 1014.1 |
| 20260507153516 | 46 | 263 | 5.0 | 10.0 | 0.00 | 0.00 | 0.00 | 50 | 1014.1 |
| 20260507153037 | 45 | 255 | 6.0 | 10.0 | 0.00 | 0.00 | 0.00 | 48 | 1014.2 |
| 20260507152516 | 45 | 277 | 4.0 | 11.0 | 0.00 | 0.00 | 0.00 | 49 | 1014.2 |
| 20260507152016 | 45 | 334 | 5.0 | 12.0 | 0.00 | 0.00 | 0.00 | 49 | 1014.3 |
| 20260507151531 | 45 | 281 | 7.0 | 12.0 | 0.00 | 0.00 | 0.00 | 48 | 1014.3 |
| 20260507151015 | 45 | 311 | 6.0 | 12.0 | 0.00 | 0.00 | 0.00 | 47 | 1014.4 |
| 20260507150516 | 46 | 311 | 4.0 | 13.0 | 0.00 | 0.00 | 0.00 | 47 | 1014.3 |
| 20260507150030 | 46 | 277 | 6.0 | 13.0 | 0.00 | 0.00 | 0.00 | 47 | 1014.3 |
| 20260507145519 | 45 | 327 | 6.0 | 13.0 | 0.00 | 0.00 | 0.00 | 48 | 1014.4 |
| 20260507145015 | 45 | 313 | 5.0 | 13.0 | 0.00 | 0.00 | 0.00 | 48 | 1014.4 |
| 20260507144532 | 45 | 269 | 4.0 | 11.0 | 0.00 | 0.00 | 0.00 | 48 | 1014.4 |
| 20260507144016 | 45 | 259 | 5.0 | 14.0 | 0.00 | 0.00 | 0.00 | 49 | 1014.4 |
| 20260507143515 | 45 | 294 | 4.0 | 14.0 | 0.00 | 0.00 | 0.00 | 48 | 1014.4 |
| 20260507143030 | 45 | 318 | 8.0 | 13.0 | 0.00 | 0.00 | 0.00 | 46 | 1014.6 |
| 20260507142513 | 45 | 277 | 6.0 | 13.0 | 0.00 | 0.00 | 0.00 | 47 | 1014.7 |
| 20260507142013 | 45 | 238 | 6.0 | 13.0 | 0.00 | 0.00 | 0.00 | 49 | 1014.6 |
| 20260507141532 | 44 | 232 | 7.0 | 13.0 | 0.00 | 0.00 | 0.00 | 48 | 1014.7 |
| 20260507141017 | 45 | 267 | 6.0 | 16.0 | 0.00 | 0.00 | 0.00 | 49 | 1014.8 |
| 20260507140515 | 44 | 266 | 8.0 | 16.0 | 0.00 | 0.00 | 0.00 | 49 | 1014.9 |
| 20260507140034 | 44 | 221 | 7.0 | 15.0 | 0.00 | 0.00 | 0.00 | 48 | 1014.8 |
| 20260507135519 | 44 | 241 | 6.0 | 15.0 | 0.00 | 0.00 | 0.00 | 51 | 1015.0 |
| 20260507135015 | 44 | 253 | 9.0 | 14.0 | 0.00 | 0.00 | 0.00 | 50 | 1014.9 |
| 20260507134532 | 44 | 248 | 7.0 | 14.0 | 0.00 | 0.00 | 0.00 | 50 | 1014.9 |
| 20260507134015 | 44 | 273 | 8.0 | 14.0 | 0.00 | 0.00 | 0.00 | 50 | 1014.9 |
| 20260507133518 | 43 | 258 | 5.0 | 14.0 | 0.00 | 0.00 | 0.00 | 51 | 1015.0 |
| 20260507133033 | 43 | 259 | 7.0 | 14.0 | 0.00 | 0.00 | 0.00 | 50 | 1015.0 |
| 20260507132522 | 43 | 265 | 7.0 | 16.0 | 0.00 | 0.00 | 0.00 | 50 | 1015.0 |
| 20260507132015 | 43 | 281 | 9.0 | 16.0 | 0.00 | 0.00 | 0.00 | 51 | 1014.9 |
| 20260507131534 | 42 | 236 | 5.0 | 11.0 | 0.00 | 0.00 | 0.00 | 53 | 1015.0 |
| 20260507131019 | 42 | 250 | 5.0 | 11.0 | 0.00 | 0.00 | 0.00 | 54 | 1015.0 |
| 20260507130516 | 42 | 232 | 5.0 | 10.0 | 0.00 | 0.00 | 0.00 | 55 | 1014.9 |
| 20260507130052 | 41 | 257 | 4.0 | 9.0 | 0.00 | 0.00 | 0.00 | 56 | 1015.0 |
| 20260507125521 | 41 | 256 | 3.0 | 7.0 | 0.00 | 0.00 | 0.00 | 59 | 1015.0 |
| 20260507125015 | 40 | 298 | 3.0 | 7.0 | 0.00 | 0.00 | 0.00 | 60 | 1015.0 |
| 20260507124530 | 40 | 286 | 4.0 | 7.0 | 0.00 | 0.00 | 0.00 | 62 | 1015.1 |
| 20260507124015 | 39 | 240 | 3.0 | 9.0 | 0.00 | 0.00 | 0.00 | 64 | 1015.0 |
| 20260507123515 | 39 | 277 | 4.0 | 9.0 | 0.00 | 0.00 | 0.00 | 64 | 1015.0 |
| 20260507123037 | 39 | 283 | 4.0 | 9.0 | 0.00 | 0.00 | 0.00 | 64 | 1014.9 |
| 20260507122517 | 38 | 261 | 3.0 | 7.0 | 0.00 | 0.00 | 0.00 | 65 | 1014.8 |
| 20260507122016 | 37 | 254 | 3.0 | 6.0 | 0.00 | 0.00 | 0.00 | 68 | 1014.7 |
| 20260507121530 | 37 | 261 | 2.0 | 4.0 | 0.00 | 0.00 | 0.00 | 68 | 1014.7 |
| 20260507121016 | 36 | 273 | 2.0 | 4.0 | 0.00 | 0.00 | 0.00 | 68 | 1014.7 |
| 20260507120515 | 36 | 289 | 2.0 | 4.0 | 0.00 | 0.00 | 0.00 | 69 | 1014.7 |
| 20260507120036 | 36 | 280 | 2.0 | 4.0 | 0.00 | 0.00 | 0.00 | 69 | 1014.7 |
| 20260507115516 | 36 | 347 | 2.0 | 6.0 | 0.00 | 0.00 | 0.00 | 70 | 1014.8 |
| 20260507115016 | 35 | 265 | 2.0 | 6.0 | 0.00 | 0.00 | 0.00 | 71 | 1014.9 |
| 20260507114530 | 34 | 263 | 1.0 | 4.0 | 0.00 | 0.00 | 0.00 | 72 | 1014.8 |
| 20260507114015 | 34 | 259 | 2.0 | 3.0 | 0.00 | 0.00 | 0.00 | 72 | 1014.9 |
| 20260507113517 | 34 | 254 | 2.0 | 3.0 | 0.00 | 0.00 | 0.00 | 73 | 1014.7 |
| 20260507113029 | 33 | 265 | 1.0 | 3.0 | 0.00 | 0.00 | 0.00 | 74 | 1014.6 |
| 20260507112516 | 33 | 271 | 1.0 | 2.0 | 0.00 | 0.00 | 0.00 | 74 | 1014.5 |
| 20260507112016 | 33 | 274 | 0.0 | 2.0 | 0.00 | 0.00 | 0.00 | 74 | 1014.4 |
| 20260507111530 | 32 | 144 | 0.0 | 2.0 | 0.00 | 0.00 | 0.00 | 75 | 1014.4 |
| 20260507111015 | 32 | 173 | 1.0 | 2.0 | 0.00 | 0.00 | 0.00 | 75 | 1014.3 |
| 20260507110516 | 32 | 286 | 1.0 | 2.0 | 0.00 | 0.00 | 0.00 | 75 | 1014.2 |
| 20260507110031 | 32 | 244 | 1.0 | 2.0 | 0.00 | 0.00 | 0.00 | 74 | 1014.3 |
| 20260507105515 | 32 | 0 | 0.0 | 2.0 | 0.00 | 0.00 | 0.00 | 74 | 1014.3 |
| 20260507105016 | 32 | 0 | 0.0 | 2.0 | 0.00 | 0.00 | 0.00 | 75 | 1014.3 |
| 20260507104532 | 32 | 229 | 0.0 | 2.0 | 0.00 | 0.00 | 0.00 | 75 | 1014.2 |
| 20260507104016 | 32 | 295 | 1.0 | 2.0 | 0.00 | 0.00 | 0.00 | 75 | 1014.2 |
| 20260507103516 | 32 | 120 | 1.0 | 3.0 | 0.00 | 0.00 | 0.00 | 74 | 1014.2 |
| 20260507103033 | 32 | 270 | 1.0 | 3.0 | 0.00 | 0.00 | 0.00 | 74 | 1014.3 |
| 20260507102515 | 32 | 250 | 0.0 | 4.0 | 0.00 | 0.00 | 0.00 | 75 | 1014.1 |
| 20260507102016 | 32 | 250 | 1.0 | 4.0 | 0.00 | 0.00 | 0.00 | 75 | 1014.2 |
| 20260507101539 | 33 | 254 | 2.0 | 4.0 | 0.00 | 0.00 | 0.00 | 74 | 1014.2 |
| 20260507101021 | 32 | 268 | 1.0 | 3.0 | 0.00 | 0.00 | 0.00 | 72 | 1014.2 |
| 20260507100517 | 33 | 271 | 2.0 | 3.0 | 0.00 | 0.00 | 0.00 | 72 | 1014.1 |
| 20260507100045 | 33 | 269 | 1.0 | 2.0 | 0.00 | 0.00 | 0.00 | 72 | 1014.0 |
| 20260507095516 | 33 | 254 | 1.0 | 2.0 | 0.00 | 0.00 | 0.00 | 71 | 1014.1 |
| 20260507095015 | 33 | 240 | 0.0 | 2.0 | 0.00 | 0.00 | 0.00 | 72 | 1013.8 |
| 20260507094533 | 33 | 239 | 0.0 | 2.0 | 0.00 | 0.00 | 0.00 | 72 | 1013.9 |
| 20260507094016 | 33 | 239 | 0.0 | 2.0 | 0.00 | 0.00 | 0.00 | 70 | 1013.8 |
| 20260507093518 | 34 | 0 | 0.0 | 2.0 | 0.00 | 0.00 | 0.00 | 70 | 1013.9 |
| 20260507093030 | 34 | 0 | 1.0 | 2.0 | 0.00 | 0.00 | 0.00 | 70 | 1014.0 |
| 20260507092516 | 34 | 236 | 1.0 | 2.0 | 0.00 | 0.00 | 0.00 | 70 | 1013.9 |
| 20260507092014 | 34 | 234 | 1.0 | 2.0 | 0.00 | 0.00 | 0.00 | 69 | 1014.0 |
| 20260507091532 | 34 | 237 | 1.0 | 2.0 | 0.00 | 0.00 | 0.00 | 70 | 1014.0 |
| 20260507091016 | 34 | 264 | 1.0 | 2.0 | 0.00 | 0.00 | 0.00 | 70 | 1014.1 |
| 20260507090519 | 34 | 260 | 1.0 | 2.0 | 0.00 | 0.00 | 0.00 | 69 | 1014.1 |
| 20260507090032 | 34 | 252 | 1.0 | 3.0 | 0.00 | 0.00 | 0.00 | 69 | 1014.1 |
| 20260507085515 | 34 | 238 | 1.0 | 3.0 | 0.00 | 0.00 | 0.00 | 68 | 1014.2 |
| 20260507085016 | 34 | 259 | 1.0 | 3.0 | 0.00 | 0.00 | 0.00 | 68 | 1014.2 |
| 20260507084529 | 34 | 278 | 1.0 | 4.0 | 0.00 | 0.00 | 0.00 | 68 | 1014.2 |
| 20260507084015 | 34 | 259 | 1.0 | 4.0 | 0.00 | 0.00 | 0.00 | 68 | 1014.2 |
| 20260507083515 | 35 | 257 | 1.0 | 4.0 | 0.00 | 0.00 | 0.00 | 68 | 1014.3 |
| 20260507083037 | 35 | 282 | 2.0 | 4.0 | 0.00 | 0.00 | 0.00 | 68 | 1014.2 |
| 20260507082516 | 35 | 282 | 1.0 | 4.0 | 0.00 | 0.00 | 0.00 | 68 | 1014.1 |
| 20260507082016 | 35 | 280 | 2.0 | 4.0 | 0.00 | 0.00 | 0.00 | 68 | 1014.1 |
| 20260507081530 | 35 | 265 | 1.0 | 4.0 | 0.00 | 0.00 | 0.00 | 68 | 1014.1 |
| 20260507081016 | 35 | 271 | 1.0 | 3.0 | 0.00 | 0.00 | 0.00 | 68 | 1014.1 |
| 20260507080516 | 35 | 265 | 2.0 | 3.0 | 0.00 | 0.00 | 0.00 | 68 | 1014.1 |
| 20260507080036 | 35 | 265 | 1.0 | 2.0 | 0.00 | 0.00 | 0.00 | 68 | 1014.0 |
| 20260507075516 | 35 | 257 | 0.0 | 2.0 | 0.00 | 0.00 | 0.00 | 69 | 1014.0 |
| 20260507075016 | 35 | 254 | 0.0 | 2.0 | 0.00 | 0.00 | 0.00 | 69 | 1014.1 |
| 20260507074531 | 35 | 0 | 0.0 | 2.0 | 0.00 | 0.00 | 0.00 | 68 | 1014.1 |
| 20260507074015 | 35 | 253 | 1.0 | 2.0 | 0.00 | 0.00 | 0.00 | 68 | 1014.1 |
| 20260507073519 | 35 | 253 | 1.0 | 2.0 | 0.00 | 0.00 | 0.00 | 68 | 1014.1 |
| 20260507073032 | 36 | 253 | 0.0 | 2.0 | 0.00 | 0.00 | 0.00 | 67 | 1014.2 |
| 20260507072516 | 36 | 253 | 0.0 | 2.0 | 0.00 | 0.00 | 0.00 | 66 | 1014.1 |
| 20260507072016 | 36 | 244 | 1.0 | 4.0 | 0.00 | 0.00 | 0.00 | 66 | 1014.3 |
| 20260507071535 | 36 | 266 | 1.0 | 4.0 | 0.00 | 0.00 | 0.00 | 66 | 1014.4 |
| 20260507071018 | 36 | 279 | 2.0 | 4.0 | 0.00 | 0.00 | 0.00 | 66 | 1014.2 |
| 20260507070519 | 36 | 254 | 1.0 | 4.0 | 0.00 | 0.00 | 0.00 | 66 | 1014.4 |
| 20260507070038 | 36 | 258 | 2.0 | 3.0 | 0.00 | 0.00 | 0.00 | 65 | 1014.4 |
| 20260507065519 | 36 | 299 | 1.0 | 4.0 | 0.00 | 0.00 | 0.00 | 65 | 1014.4 |
| 20260507065016 | 37 | 267 | 1.0 | 4.0 | 0.00 | 0.00 | 0.00 | 65 | 1014.5 |
| 20260507064536 | 37 | 274 | 2.0 | 4.0 | 0.00 | 0.00 | 0.00 | 64 | 1014.7 |
| 20260507064017 | 37 | 274 | 1.0 | 5.0 | 0.00 | 0.00 | 0.00 | 64 | 1014.5 |
| 20260507063516 | 37 | 285 | 1.0 | 5.0 | 0.00 | 0.00 | 0.00 | 63 | 1014.5 |
| 20260507063032 | 37 | 287 | 2.0 | 5.0 | 0.00 | 0.00 | 0.00 | 63 | 1014.6 |
| 20260507062515 | 38 | 309 | 2.0 | 5.0 | 0.00 | 0.00 | 0.00 | 63 | 1014.6 |
| 20260507062015 | 38 | 306 | 2.0 | 5.0 | 0.00 | 0.00 | 0.00 | 63 | 1014.7 |
| 20260507061530 | 38 | 304 | 3.0 | 5.0 | 0.00 | 0.00 | 0.00 | 63 | 1014.7 |
| 20260507061017 | 38 | 316 | 3.0 | 6.0 | 0.00 | 0.00 | 0.00 | 63 | 1014.7 |
| 20260507060520 | 38 | 272 | 3.0 | 9.0 | 0.00 | 0.00 | 0.00 | 63 | 1014.7 |
| 20260507060032 | 38 | 321 | 4.0 | 9.0 | 0.00 | 0.00 | 0.00 | 63 | 1014.7 |
| 20260507055515 | 38 | 329 | 3.0 | 8.0 | 0.00 | 0.00 | 0.00 | 63 | 1014.7 |
| 20260507055015 | 38 | 310 | 3.0 | 6.0 | 0.00 | 0.00 | 0.00 | 62 | 1014.9 |
| 20260507054538 | 38 | 293 | 2.0 | 6.0 | 0.00 | 0.00 | 0.00 | 62 | 1014.9 |
| 20260507054018 | 38 | 296 | 2.0 | 7.0 | 0.00 | 0.00 | 0.00 | 62 | 1014.9 |
| 20260507053516 | 39 | 302 | 3.0 | 7.0 | 0.00 | 0.00 | 0.00 | 61 | 1014.9 |
| 20260507053030 | 39 | 306 | 2.0 | 6.0 | 0.00 | 0.00 | 0.00 | 61 | 1015.0 |
| 20260507052515 | 39 | 294 | 3.0 | 7.0 | 0.00 | 0.00 | 0.00 | 60 | 1015.1 |
| 20260507052016 | 39 | 280 | 3.0 | 7.0 | 0.00 | 0.00 | 0.00 | 60 | 1015.1 |
| 20260507051531 | 39 | 316 | 3.0 | 5.0 | 0.00 | 0.00 | 0.00 | 60 | 1015.2 |
| 20260507051015 | 39 | 288 | 3.0 | 8.0 | 0.00 | 0.00 | 0.00 | 60 | 1015.2 |
| 20260507050515 | 39 | 311 | 5.0 | 9.0 | 0.00 | 0.00 | 0.00 | 59 | 1015.1 |
| 20260507050036 | 40 | 292 | 4.0 | 9.0 | 0.00 | 0.00 | 0.00 | 59 | 1015.2 |
| 20260507045515 | 40 | 301 | 4.0 | 7.0 | 0.00 | 0.00 | 0.00 | 59 | 1015.2 |
| 20260507045017 | 40 | 294 | 3.0 | 7.0 | 0.00 | 0.00 | 0.00 | 58 | 1015.2 |
| 20260507044536 | 40 | 338 | 3.0 | 7.0 | 0.00 | 0.00 | 0.00 | 58 | 1015.3 |
| 20260507044015 | 40 | 293 | 4.0 | 9.0 | 0.00 | 0.00 | 0.00 | 57 | 1015.3 |
| 20260507043516 | 40 | 303 | 3.0 | 9.0 | 0.00 | 0.00 | 0.00 | 57 | 1015.3 |
| 20260507043032 | 41 | 295 | 4.0 | 8.0 | 0.00 | 0.00 | 0.00 | 56 | 1015.2 |
| 20260507042515 | 41 | 312 | 5.0 | 9.0 | 0.00 | 0.00 | 0.00 | 56 | 1015.2 |
| 20260507042015 | 41 | 260 | 5.0 | 9.0 | 0.00 | 0.00 | 0.00 | 56 | 1015.2 |
| 20260507041542 | 41 | 269 | 4.0 | 9.0 | 0.00 | 0.00 | 0.00 | 55 | 1015.2 |
| 20260507041016 | 42 | 306 | 4.0 | 10.0 | 0.00 | 0.00 | 0.00 | 55 | 1015.3 |
| 20260507040516 | 42 | 325 | 3.0 | 12.0 | 0.00 | 0.00 | 0.00 | 54 | 1015.3 |
| 20260507040032 | 42 | 311 | 5.0 | 12.0 | 0.00 | 0.00 | 0.00 | 54 | 1015.3 |
| 20260507035515 | 42 | 292 | 6.0 | 12.0 | 0.00 | 0.00 | 0.00 | 54 | 1015.4 |
| 20260507035016 | 42 | 316 | 7.0 | 12.0 | 0.00 | 0.00 | 0.00 | 53 | 1015.4 |
| 20260507034533 | 42 | 306 | 7.0 | 12.0 | 0.00 | 0.00 | 0.00 | 53 | 1015.3 |
| 20260507034016 | 42 | 279 | 7.0 | 12.0 | 0.00 | 0.00 | 0.00 | 53 | 1015.3 |
| 20260507033515 | 43 | 308 | 5.0 | 13.0 | 0.00 | 0.00 | 0.00 | 53 | 1015.3 |
| 20260507033034 | 43 | 315 | 8.0 | 13.0 | 0.00 | 0.00 | 0.00 | 52 | 1015.3 |
| 20260507032513 | 43 | 300 | 7.0 | 11.0 | 0.00 | 0.00 | 0.00 | 52 | 1015.3 |
| 20260507032015 | 43 | 254 | 5.0 | 11.0 | 0.00 | 0.00 | 0.00 | 52 | 1015.3 |
| 20260507031531 | 43 | 329 | 6.0 | 11.0 | 0.00 | 0.00 | 0.00 | 52 | 1015.4 |
| 20260507031018 | 43 | 300 | 6.0 | 14.0 | 0.00 | 0.00 | 0.00 | 52 | 1015.4 |
| 20260507030516 | 43 | 321 | 4.0 | 14.0 | 0.00 | 0.00 | 0.00 | 52 | 1015.4 |
| 20260507030032 | 43 | 310 | 9.0 | 13.0 | 0.00 | 0.00 | 0.00 | 51 | 1015.3 |
| 20260507025515 | 43 | 303 | 4.0 | 10.0 | 0.00 | 0.00 | 0.00 | 51 | 1015.3 |
| 20260507025016 | 43 | 276 | 5.0 | 10.0 | 0.00 | 0.00 | 0.00 | 51 | 1015.2 |
| 20260507024531 | 44 | 338 | 4.0 | 10.0 | 0.00 | 0.00 | 0.00 | 50 | 1015.1 |
| 20260507024014 | 44 | 300 | 6.0 | 16.0 | 0.00 | 0.00 | 0.00 | 49 | 1015.1 |
| 20260507023525 | 44 | 325 | 6.0 | 16.0 | 0.00 | 0.00 | 0.00 | 49 | 1015.1 |
| 20260507023030 | 44 | 310 | 5.0 | 14.0 | 0.00 | 0.00 | 0.00 | 49 | 1015.1 |
| 20260507022516 | 44 | 313 | 7.0 | 13.0 | 0.00 | 0.00 | 0.00 | 48 | 1015.0 |
| 20260507022018 | 44 | 264 | 7.0 | 12.0 | 0.00 | 0.00 | 0.00 | 49 | 1015.0 |
| 20260507021531 | 44 | 333 | 8.0 | 13.0 | 0.00 | 0.00 | 0.00 | 48 | 1014.9 |
| 20260507021018 | 44 | 288 | 6.0 | 13.0 | 0.00 | 0.00 | 0.00 | 48 | 1014.7 |
| 20260507020516 | 44 | 315 | 6.0 | 17.0 | 0.00 | 0.00 | 0.00 | 48 | 1014.7 |
| 20260507020031 | 44 | 303 | 9.0 | 17.0 | 0.00 | 0.00 | 0.00 | 47 | 1014.7 |
| 20260507015516 | 45 | 315 | 5.0 | 13.0 | 0.00 | 0.00 | 0.00 | 48 | 1014.6 |
| 20260507015015 | 45 | 281 | 8.0 | 17.0 | 0.00 | 0.00 | 0.00 | 47 | 1014.5 |